Regional Weather Roundup
Issued by NWS Little Rock, AR

Home | Current Version | Previous Version | Text Only | Print | Product List | Glossary Off
Versions: 1 2 3 4 5 6 7 8 9 10 11 12 13 14 15 16 17 18 19 20 21 22 23 24 25 26 27 28 29 30 31 32 33 34 35 36 37 38 39 40 41 42 43 44 45 46 47 48 49 50

000
ASUS44 KLZK 061105
RWRLZK

WEATHER ROUNDUP FOR ARKANSAS
NATIONAL WEATHER SERVICE LITTLE ROCK AR
600 AM CDT MON JUL 06 2015

NOTE: "FAIR" INDICATES FEW OR NO CLOUDS BELOW 12,000 FEET WITH NO
SIGNIFICANT WEATHER AND/OR OBSTRUCTIONS TO VISIBILITY.

ARZ001-003-010-029-061200-
NORTHWEST ARKANSAS

CITY           SKY/WX    TMP DP  RH WIND       PRES   REMARKS
FAYETTEVILLE   CLOUDY    71  69  93 CALM      30.03R
FORT SMITH     MOCLDY    73  70  90 NE3       30.00R
HARRISON       PTCLDY    70  69  97 SE6       30.04R
BENTONVILLE    PTCLDY    72  66  83 S6        30.02R
ROGERS         PTCLDY    72  70  93 S7        30.03R
SILOAM SPGS    MOCLDY    73  66  78 S8        30.03R
HIGHFILL       PTCLDY    72  71  97 S7        30.02R
SPRINGDALE     PTCLDY    73  70  88 S8        30.05
$$

ARZ004-005-016-061200-
NORTH CENTRAL ARKANSAS

CITY           SKY/WX    TMP DP  RH WIND       PRES   REMARKS
BATESVILLE     CLEAR     70  66  88 CALM      30.06R
FLIPPIN        PTCLDY    70  66  88 CALM      30.01R
MTN HOME       PTCLDY    70  69  97 S6        30.03R
$$

ARZ040-041-061200-
WEST CENTRAL ARKANSAS

CITY           SKY/WX    TMP DP  RH WIND       PRES   REMARKS
MENA           CLOUDY    77  73  88 SW7       30.06S
MOUNT IDA      CLOUDY    72  70  93 VRB3      30.04R
$$

ARZ009-017-025-026-028-061200-
NORTHEAST ARKANSAS

CITY           SKY/WX    TMP DP  RH WIND       PRES   REMARKS
JONESBORO      CLEAR     70  69  97 S6        30.08R
NEWPORT        PTCLDY    70  70 100 S7        30.07S
WALNUT RIDGE   MOCLDY    72  68  88 S8        30.06R
BLYTHEVILLE    CLEAR     72  70  93 S9        30.09R
$$

ARZ022-023-033-042-044-061200-
CENTRAL ARKANSAS

CITY           SKY/WX    TMP DP  RH WIND       PRES   REMARKS
LITTLE ROCK    CLOUDY    70  66  87 S6        30.07R
N LITTLE ROCK    N/A     72  70  96 SW8         N/A
JACKSONVILLE   CLOUDY    71  68  91 SE5       30.06R
SEARCY         CLEAR     68  67  96 S6        30.09R
HOT SPRINGS    CLOUDY    73  70  90 CALM      30.07R
RUSSELLVILLE   PTCLDY    71  70  96 E3        30.04R
CLINTON        CLOUDY    70  70 100 CALM      30.08R
$$

ARZ036-061200-
EAST ARKANSAS

CITY           SKY/WX    TMP DP  RH WIND       PRES   REMARKS
WEST MEMPHIS   CLEAR     69  69 100 S8        30.08R
$$

ARZ050-053-066-070-073-061200-
SOUTHWEST ARKANSAS

CITY           SKY/WX    TMP DP  RH WIND       PRES   REMARKS
ARKADELPHIA    CLOUDY    71  71 100 CALM      30.08R
CAMDEN         CLOUDY    66  64  94 CALM      30.08R
TEXARKANA      MOCLDY    72  71  97 S3        30.06R
EL DORADO      CLEAR     68  67  96 CALM      30.08R
DE QUEEN       CLOUDY    72  71  97 E3        30.03R
$$

ARZ056-057-069-061200-
SOUTHEAST ARKANSAS

CITY           SKY/WX    TMP DP  RH WIND       PRES   REMARKS
PINE BLUFF     CLEAR     68  66  93 SE3       30.09R
STUTTGART      CLOUDY    70  66  88 S7        30.07R
MONTICELLO     CLEAR     67  67 100 CALM      30.09R

$$





USA.gov is the U.S. government's official web portal to all federal, state and local government web resources and services.